Rutland, VT

5:24 AM EST on January 19, 2018 (GMT -0500)
Rutland State

Weather History for KRUT - June, 2013

Change the Weather History Date:

Friday, June 14, 2013

  Actual Average Record
Temperature  
Mean Temperature 60 °F -  
Max Temperature 72 °F - 92 °F (1983)
Min Temperature 48 °F - 39 °F (1970)
Degree Days  
Heating Degree Days 5    
Month to date heating degree days 76  
Since 1 June heating degree days 76  
Since 1 July heating degree days 6904  
Cooling Degree Days 0    
Month to date cooling degree days 20  
Year to date cooling degree days 47  
Since 1 June cooling degree days 20  
Growing Degree Days 10 (Base 50)    
Moisture  
Dew Point 52 °F    
Average Humidity 74    
Maximum Humidity 100    
Minimum Humidity 47    
Precipitation  
Precipitation 0.00 in - 1.83 in (1998)
Month to date precipitation 1.71  
Year to date precipitation 8.95  
Sea Level Pressure  
Sea Level Pressure 29.76 in    
Wind  
Wind Speed 4 mph (North)    
Max Wind Speed 13 mph    
Max Gust Speed 23 mph    
Visibility 9 miles    
Events      
T = Trace of Precipitation, MM = Missing Value Source: NWS Daily Summary

Daily Weather History Graph

Daily Weather History Graph

Search for Another Location

Airport or City:

Trip Planner

Search our weather history database for the weather conditions in past years. The results will help you decide how hot, cold, wet, or windy it might be!

Date:

Astronomy

Jun. 14, 2013 Rise Set
Actual Time 5:10 AM EDT 8:34 PM EDT
Civil Twilight 4:34 AM EDT 9:10 PM EDT
Nautical Twilight 3:47 AM EDT 9:56 PM EDT
Astronomical Twilight 2:49 AM EDT 10:55 PM EDT
Moon 10:51 AM EDT (6/14) 11:58 PM EDT (6/14)
Length of Visible Light 16h 35m
Length of Day
15h 24m
Waxing Crescent, 30% of the Moon is Illuminated
Jun 14
Waxing Crescent
Jun 16
First Quarter
Jun 23
Full
Jun 30
Last Quarter
Jul 8
New

Hourly Weather History & Observations

Time (EDT) Temp. Dew Point Humidity Pressure Visibility Wind Dir Wind Speed Gust Speed Precip Events Conditions
12:15 AM 51.8 °F 51.8 °F 100% 29.73 in 10.0 mi Calm Calm - N/A   Overcast
12:35 AM 51.8 °F 50.0 °F 94% 29.73 in 10.0 mi Calm Calm - N/A   Overcast
12:55 AM 51.8 °F 51.8 °F 100% 29.72 in 10.0 mi SE 3.5 mph - N/A   Overcast
1:15 AM 51.8 °F 50.0 °F 94% 29.72 in 10.0 mi Calm Calm - N/A   Overcast
1:35 AM 51.8 °F 51.8 °F 100% 29.72 in 8.0 mi East 3.5 mph - N/A   Overcast
1:55 AM 51.8 °F 50.0 °F 94% 29.71 in 10.0 mi Calm Calm - N/A   Overcast
2:15 AM 51.8 °F 51.8 °F 100% 29.71 in 2.5 mi SE 5.8 mph - N/A   Overcast
2:35 AM 51.8 °F 51.8 °F 100% 29.71 in 0.8 mi Calm Calm - N/A   Overcast
2:55 AM 51.8 °F 50.0 °F 94% 29.71 in 1.0 mi SSE 3.5 mph - N/A   Overcast
3:15 AM 51.8 °F 50.0 °F 94% 29.71 in 3.0 mi Calm Calm - N/A   Overcast
3:35 AM 51.8 °F 51.8 °F 100% 29.71 in 4.0 mi Calm Calm - N/A   Overcast
3:55 AM 51.8 °F 51.8 °F 100% 29.71 in 1.5 mi Calm Calm - N/A   Overcast
4:15 AM 51.8 °F 50.0 °F 94% 29.72 in 3.0 mi Calm Calm - N/A   Overcast
4:35 AM 51.8 °F 50.0 °F 94% 29.73 in 10.0 mi ESE 3.5 mph - N/A   Overcast
4:55 AM 50.0 °F 48.2 °F 94% 29.73 in 9.0 mi SE 4.6 mph - N/A   Mostly Cloudy
5:15 AM 50.0 °F 48.2 °F 94% 29.73 in 5.0 mi Calm Calm - N/A   Mostly Cloudy
5:35 AM 50.0 °F 48.2 °F 94% 29.72 in 0.2 mi Calm Calm - N/A   Overcast
5:55 AM 50.0 °F 48.2 °F 94% 29.73 in 10.0 mi ESE 3.5 mph - N/A   Scattered Clouds
6:15 AM 50.0 °F 48.2 °F 94% 29.73 in 10.0 mi Calm Calm - N/A   Clear
6:35 AM 51.8 °F 50.0 °F 94% 29.73 in 10.0 mi Calm Calm - N/A   Clear
6:55 AM 51.8 °F 50.0 °F 94% 29.73 in 3.0 mi Calm Calm - N/A   Scattered Clouds
7:15 AM 51.8 °F 50.0 °F 94% 29.73 in 10.0 mi Calm Calm - N/A   Scattered Clouds
7:35 AM 51.8 °F 50.0 °F 94% 29.73 in 3.0 mi Calm Calm - N/A   Mostly Cloudy
7:55 AM 51.8 °F 51.8 °F 100% 29.74 in 4.0 mi Calm Calm - N/A   Overcast
8:15 AM 51.8 °F 51.8 °F 100% 29.74 in 7.0 mi Calm Calm - N/A   Overcast
8:35 AM 53.6 °F 51.8 °F 94% 29.75 in 10.0 mi WNW 3.5 mph - N/A   Overcast
8:55 AM 53.6 °F 51.8 °F 94% 29.76 in 10.0 mi Calm Calm - N/A   Overcast
9:15 AM 55.4 °F 53.6 °F 94% 29.76 in 10.0 mi NNE 4.6 mph - N/A   Overcast
9:35 AM 55.4 °F 53.6 °F 94% 29.76 in 10.0 mi NNE 4.6 mph - N/A   Overcast
9:55 AM 57.2 °F 53.6 °F 88% 29.76 in 10.0 mi NNW 4.6 mph - N/A   Mostly Cloudy
10:15 AM 59.0 °F 53.6 °F 82% 29.76 in 10.0 mi NNW 3.5 mph - N/A   Mostly Cloudy
10:35 AM 60.8 °F 55.4 °F 82% 29.76 in 10.0 mi NNW 5.8 mph - N/A   Partly Cloudy
10:55 AM 60.8 °F 55.4 °F 82% 29.76 in 10.0 mi NNW 3.5 mph - N/A   Clear
11:15 AM 62.6 °F 55.4 °F 77% 29.76 in 10.0 mi North 8.1 mph - N/A   Partly Cloudy
11:35 AM 64.4 °F 55.4 °F 73% 29.75 in 10.0 mi North 6.9 mph - N/A   Scattered Clouds
11:55 AM 66.2 °F 55.4 °F 68% 29.75 in 10.0 mi North 5.8 mph - N/A   Mostly Cloudy
12:15 PM - - N/A% 29.75 in 10.0 mi NNE 9.2 mph - N/A   Overcast
12:35 PM 66.2 °F 57.2 °F 73% 29.75 in 10.0 mi NE 4.6 mph - N/A   Mostly Cloudy
12:55 PM 69.8 °F 55.4 °F 60% 29.75 in 10.0 mi North 6.9 mph - N/A   Mostly Cloudy
1:15 PM 69.8 °F 53.6 °F 56% 29.75 in 10.0 mi North 9.2 mph - N/A   Mostly Cloudy
1:35 PM 69.8 °F 53.6 °F 56% 29.75 in 10.0 mi North 9.2 mph - N/A   Mostly Cloudy
1:55 PM 71.6 °F 53.6 °F 53% 29.75 in 10.0 mi North 9.2 mph - N/A   Mostly Cloudy
2:15 PM - - N/A% 29.75 in 10.0 mi NNW 8.1 mph 17.3 mph N/A   Mostly Cloudy
2:35 PM - - N/A% 29.75 in 10.0 mi NNW 12.7 mph 20.7 mph N/A   Mostly Cloudy
2:55 PM 69.8 °F 51.8 °F 53% 29.75 in 10.0 mi NNW 6.9 mph 16.1 mph N/A   Mostly Cloudy
3:15 PM 69.8 °F 53.6 °F 56% 29.75 in 10.0 mi NNW 8.1 mph - N/A   Mostly Cloudy
3:35 PM - - N/A% 29.74 in 10.0 mi NNW 12.7 mph 19.6 mph N/A   Partly Cloudy
3:55 PM - - N/A% 29.75 in 10.0 mi NNW 11.5 mph 23.0 mph N/A   Clear
4:15 PM - - N/A% 29.75 in 10.0 mi NW 13.8 mph 23.0 mph N/A   Clear
4:35 PM - - N/A% 29.75 in 10.0 mi NNW 15.0 mph 20.7 mph N/A   Clear
4:55 PM - - N/A% 29.75 in 10.0 mi NNW 12.7 mph 19.6 mph N/A   Clear
5:15 PM - - N/A% 29.75 in 10.0 mi NNW 11.5 mph 20.7 mph N/A   Clear
5:35 PM - - N/A% 29.76 in 10.0 mi NNW 11.5 mph 23.0 mph N/A   Clear
5:55 PM - - N/A% 29.76 in 10.0 mi NNW 11.5 mph 16.1 mph N/A   Clear
6:15 PM - - N/A% 29.77 in 10.0 mi NNW 10.4 mph 18.4 mph N/A   Clear
6:35 PM - - N/A% 29.77 in 10.0 mi NNW 10.4 mph 16.1 mph N/A   Clear
6:55 PM 69.8 °F 48.2 °F 46% 29.78 in 10.0 mi NW 6.9 mph - N/A   Clear
7:35 PM 68.0 °F 48.2 °F 49% 29.80 in 10.0 mi NW 5.8 mph - N/A   Clear
7:55 PM 68.0 °F 50.0 °F 52% 29.80 in 10.0 mi NNW 3.5 mph - N/A   Clear
8:15 PM 66.2 °F 50.0 °F 56% 29.81 in 10.0 mi Calm Calm - N/A   Clear
8:35 PM 62.6 °F 51.8 °F 68% 29.81 in 10.0 mi Calm Calm - N/A   Clear
8:55 PM 60.8 °F 53.6 °F 77% 29.82 in 10.0 mi Calm Calm - N/A   Clear
9:15 PM 60.8 °F 53.6 °F 77% 29.82 in 10.0 mi SSE 3.5 mph - N/A   Clear
9:35 PM 57.2 °F 53.6 °F 88% 29.83 in 10.0 mi SE 4.6 mph - N/A   Clear
9:55 PM 57.2 °F 53.6 °F 88% 29.84 in 10.0 mi SE 4.6 mph - N/A   Clear
10:35 PM 55.4 °F 51.8 °F 88% 29.84 in 10.0 mi SE 4.6 mph - N/A   Clear
10:55 PM 55.4 °F 51.8 °F 88% 29.85 in 10.0 mi Calm Calm - N/A   Clear
11:15 PM 55.4 °F 51.8 °F 88% 29.86 in 10.0 mi ESE 3.5 mph - N/A   Clear
11:35 PM 55.4 °F 51.8 °F 88% 29.87 in 10.0 mi ESE 4.6 mph - N/A   Clear
11:55 PM 53.6 °F 51.8 °F 94% 29.87 in 10.0 mi Calm Calm - N/A   Clear